[[{"header":{"parameterUnit":"m.s-1","parameterCategory":1,"la1":30.2991,"la2":30.254,"lo1":-89.0895,"lo2":-89.0444,"dy":0.0017,"dx":0.0017,"nx":28,"ny":28,"refTime":"2024-03-10T21:00:00:Z","depth":0,"parameterNumber":2,"parameterNumberName":"U-component_of_WINDS"},"data":[0,0,0,0,0,0,0,0,0,0,0,0,0,0,0,0,0,0,0,0,0,0,0,0,0,0,0,0,0,0,0,0,0,0,0,0,0,0,0,0,0,0,0,0,0,0,0,0,0,0,0,0,0,0,0,0,0,0,-0.3877,-0.3878,0,-0.3934,-0.3935,-0.3936,-0.3946,-0.3946,-0.3945,-0.3945,-0.4006,-0.4008,-0.401,0,0,0,0,0,0,0,0,0,0,0,0,0,-0.3778,-0.378,-0.3877,-0.3878,-0.3878,-0.3934,-0.3935,-0.3936,-0.3947,-0.3946,-0.3945,-0.3945,-0.4005,-0.4008,-0.401,0,0,0,0,0,0,0,0,0,0,0,0,0,-0.3827,-0.378,-0.3877,-0.389,-0.3892,-0.3934,-0.3935,-0.3936,-0.3947,-0.3946,-0.3945,-0.3945,-0.4004,-0.4007,-0.401,-0.4043,0,0,-0.402,-0.4021,0,0,0,0,0,0,0,0,-0.3824,-0.383,-0.3888,-0.389,-0.3892,-0.3932,-0.3922,-0.3972,-0.3947,-0.3926,-0.3945,-0.3944,-0.3982,-0.3987,-0.3999,-0.4046,-0.4049,-0.402,-0.4022,-0.4023,-0.4024,0,0,0,0,0,0,0,-0.3821,-0.3828,-0.39,-0.3888,-0.3891,-0.3894,-0.39,-0.3932,-0.3957,-0.3928,-0.3929,-0.3935,-0.3983,-0.3996,-0.4001,-0.405,-0.402,-0.4023,-0.4025,-0.4026,-0.4127,-0.4128,0,0,0,0,0,0,-0.3815,-0.3825,-0.3898,-0.3901,-0.3855,-0.3896,-0.3903,-0.392,-0.3957,-0.3962,-0.3936,-0.3936,-0.3991,-0.3997,-0.4003,-0.4045,-0.4023,-0.4026,-0.4028,-0.4126,-0.4127,-0.4128,0,0,0,0,0,0,-0.3812,-0.3821,-0.3896,-0.3864,-0.3873,-0.3899,-0.3918,-0.3922,-0.3935,-0.3963,-0.3968,-0.3945,-0.3991,-0.3999,-0.4033,-0.4047,-0.4028,-0.403,-0.4125,-0.4127,-0.4128,-0.4128,0,0,0,0,0,0,-0.381,-0.382,-0.3833,-0.3864,-0.3875,-0.3924,-0.3918,-0.3923,-0.394,-0.394,-0.3973,-0.3977,-0.3991,-0.4029,-0.4036,-0.4051,-0.4033,-0.4124,-0.4126,-0.4127,-0.4127,-0.4129,-0.4131,0,0,0,0,0,-0.3806,-0.3831,-0.3833,-0.3842,-0.3891,-0.3925,-0.3932,-0.3947,-0.3941,-0.3954,-0.3972,-0.3976,-0.4044,-0.4032,-0.4041,-0.4057,-0.4123,-0.4125,-0.4127,-0.4126,-0.4129,-0.4131,0,0,0,0,0,0,-0.3802,-0.3835,-0.3838,-0.3874,-0.3896,-0.3927,-0.3944,-0.3949,-0.3974,-0.3973,-0.3991,-0.3998,-0.4032,-0.4048,-0.4034,-0.4091,-0.4083,-0.4087,-0.4079,-0.4082,-0.4084,-0.408,-0.4035,0,0,0,0,0,-0.3805,-0.3829,-0.3857,-0.3886,-0.3897,-0.3918,-0.3934,-0.3943,-0.3968,-0.3978,-0.3998,-0.4022,-0.4049,-0.4066,-0.4092,-0.4129,-0.4136,-0.4144,-0.4146,-0.4147,-0.4151,-0.4172,-0.4176,-0.4134,-0.4134,-0.4134,0,0,-0.3812,-0.3833,-0.3847,-0.3886,-0.3904,-0.393,-0.3927,-0.3954,-0.3973,-0.3982,-0.4016,-0.4032,-0.406,-0.4095,-0.4112,-0.4109,-0.4164,-0.415,-0.4151,-0.4154,-0.4174,-0.4178,-0.4181,-0.4136,-0.4135,-0.4135,0,0,-0.3837,-0.3856,-0.3882,-0.39,-0.3928,-0.3942,-0.3948,-0.3978,-0.3988,-0.4022,-0.403,-0.4053,-0.4098,-0.4118,-0.4134,-0.4166,-0.4172,-0.4174,-0.4186,-0.4206,-0.4209,-0.4212,-0.4225,-0.4229,-0.4177,-0.4177,-0.4177,0,-0.3843,-0.3881,-0.3895,-0.3921,-0.3938,-0.3946,-0.3973,-0.3991,-0.4026,-0.4038,-0.4034,-0.4091,-0.411,-0.4151,-0.4159,-0.4171,-0.4179,-0.4172,-0.4207,-0.4211,-0.4214,-0.4226,-0.423,-0.4178,-0.4178,-0.4178,-0.4178,0,-0.3887,-0.3913,-0.393,-0.3964,-0.3982,-0.4009,-0.4027,-0.4044,-0.4052,-0.4066,-0.4101,-0.4124,-0.4155,-0.4165,-0.4173,-0.4207,-0.4205,-0.4204,-0.4197,-0.4218,-0.4229,-0.4234,-0.4178,-0.4178,-0.4178,-0.4178,0,0,-0.3913,-0.3952,-0.3959,-0.3974,-0.4005,-0.4026,-0.4053,-0.4082,-0.4097,-0.4121,-0.4145,-0.4182,-0.4181,-0.42,-0.4209,-0.4227,-0.4252,-0.4224,-0.4225,-0.4229,-0.4292,-0.4293,-0.4298,-0.4255,-0.4255,-0.4256,-0.429,0,-0.3943,-0.3991,-0.4004,-0.4045,-0.407,-0.4077,-0.4101,-0.4123,-0.4137,-0.416,-0.4175,-0.4202,-0.4199,-0.421,-0.4227,-0.4245,-0.4265,-0.4243,-0.4278,-0.4279,-0.4272,-0.4304,-0.4306,-0.4337,-0.4294,-0.4295,-0.4296,0,-0.3986,-0.4009,-0.4053,-0.408,-0.4091,-0.4112,-0.414,-0.4162,-0.4187,-0.4196,-0.4216,-0.4224,-0.4252,-0.4243,-0.4283,-0.4268,-0.4283,-0.4294,-0.4295,-0.43,-0.429,-0.4312,-0.4347,-0.4352,-0.4303,-0.4302,-0.4302,0,-0.4002,-0.4045,-0.4076,-0.4089,-0.4121,-0.4136,-0.415,-0.4174,-0.4191,-0.4216,-0.4227,-0.4255,-0.427,-0.4292,-0.4307,-0.4299,-0.4347,-0.4338,-0.4356,-0.4356,-0.4367,-0.4366,-0.4407,-0.4374,-0.4374,-0.4374,-0.4374,0,-0.4035,-0.4062,-0.4084,-0.4103,-0.4133,-0.4147,-0.4177,-0.4192,-0.4213,-0.4236,-0.4244,-0.4265,-0.4283,-0.4308,-0.432,-0.4352,-0.4358,-0.4367,-0.437,-0.4367,-0.4366,-0.4379,-0.4377,-0.4375,-0.4375,-0.4375,-0.4375,0,-0.4059,-0.4075,-0.411,-0.4137,-0.4145,-0.4166,-0.419,-0.4209,-0.4223,-0.4252,-0.4259,-0.4281,-0.431,-0.4327,-0.4363,-0.4371,-0.4407,-0.4409,-0.4399,-0.4401,-0.4418,-0.4416,-0.4468,-0.4476,-0.4437,-0.4437,-0.4438,0,-0.408,-0.4101,-0.413,-0.4146,-0.416,-0.4185,-0.4202,-0.4217,-0.4234,-0.4264,-0.428,-0.4309,-0.4333,-0.4378,-0.4398,-0.4426,-0.4429,-0.4445,-0.4433,-0.443,-0.4431,-0.443,-0.4432,-0.4448,-0.4448,-0.4448,-0.4448,0,-0.4116,-0.4123,-0.4147,-0.4173,-0.4193,-0.4215,-0.4237,-0.425,-0.4268,-0.4287,-0.4316,-0.4335,-0.4371,-0.44,-0.443,-0.4445,-0.445,-0.4451,-0.4457,-0.4455,-0.4449,-0.4454,-0.4406,-0.4451,-0.4451,-0.445,-0.445,-0.445,-0.414,-0.4159,-0.4183,-0.4209,-0.4227,-0.4247,-0.4266,-0.4282,-0.4306,-0.4337,-0.4344,-0.4375,-0.4399,-0.4438,-0.4454,-0.4479,-0.4477,-0.4485,-0.4487,-0.4489,-0.449,-0.4444,-0.4484,-0.4484,-0.4484,-0.4484,-0.4484,0,-0.4178,-0.4193,-0.4217,-0.4247,-0.4268,-0.4269,-0.4293,-0.4311,-0.4338,-0.4359,-0.4383,-0.4416,-0.4444,-0.4465,-0.4494,-0.4509,-0.4512,-0.4517,-0.4516,-0.452,-0.449,-0.4483,-0.4514,-0.4514,-0.4514,-0.4514,-0.4514,-0.4514,-0.42,-0.4232,-0.4241,-0.4282,-0.4297,-0.4327,-0.434,-0.4359,-0.4376,-0.4413,-0.4436,-0.4449,-0.4471,-0.4501,-0.4527,-0.4532,-0.4543,-0.4547,-0.4553,-0.4525,-0.4522,-0.4519,-0.4512,-0.4549,-0.4549,-0.4581,-0.4581,-0.4581]},{"header":{"parameterUnit":"m.s-1","parameterCategory":1,"la1":30.2991,"la2":30.254,"lo1":-89.0895,"lo2":-89.0444,"dy":0.0017,"dx":0.0017,"nx":28,"ny":28,"refTime":"2024-03-10T21:00:00:Z","depth":0,"parameterNumber":3,"parameterNumberName":"V-component_of_WINDS"},"data":[0,0,0,0,0,0,0,0,0,0,0,0,0,0,0,0,0,0,0,0,0,0,0,0,0,0,0,0,0,0,0,0,0,0,0,0,0,0,0,0,0,0,0,0,0,0,0,0,0,0,0,0,0,0,0,0,0,0,-5.7688,-5.769,0,-5.7822,-5.7823,-5.7825,-5.7809,-5.7807,-5.7805,-5.7803,-5.7936,-5.7941,-5.7946,0,0,0,0,0,0,0,0,0,0,0,0,0,-5.7416,-5.7421,-5.7688,-5.769,-5.7691,-5.7822,-5.7823,-5.7825,-5.781,-5.7807,-5.7804,-5.7802,-5.7934,-5.794,-5.7947,0,0,0,0,0,0,0,0,0,0,0,0,0,-5.754,-5.7422,-5.7688,-5.7699,-5.7702,-5.7821,-5.7824,-5.7826,-5.781,-5.7807,-5.7804,-5.7801,-5.7932,-5.794,-5.7948,-5.8063,0,0,-5.7973,-5.7977,0,0,0,0,0,0,0,0,-5.7533,-5.755,-5.7696,-5.7699,-5.7702,-5.7796,-5.7776,-5.7905,-5.7811,-5.7769,-5.7803,-5.7799,-5.7891,-5.7903,-5.7935,-5.8069,-5.8075,-5.7974,-5.7979,-5.7982,-5.7985,0,0,0,0,0,0,0,-5.7524,-5.7544,-5.7741,-5.7698,-5.7702,-5.7697,-5.7711,-5.78,-5.7846,-5.7772,-5.7772,-5.7788,-5.7892,-5.7927,-5.7938,-5.8077,-5.7974,-5.7981,-5.7986,-5.7989,-5.8314,-5.8318,0,0,0,0,0,0,-5.7513,-5.7537,-5.7737,-5.7745,-5.7608,-5.7704,-5.772,-5.7769,-5.7845,-5.7854,-5.779,-5.7787,-5.7914,-5.7928,-5.7942,-5.8084,-5.7982,-5.799,-5.7995,-5.8311,-5.8315,-5.8319,0,0,0,0,0,0,-5.7508,-5.7531,-5.7731,-5.7641,-5.7666,-5.7713,-5.7767,-5.7773,-5.7808,-5.7859,-5.7867,-5.7818,-5.7912,-5.7931,-5.8034,-5.8088,-5.7994,-5.8001,-5.8306,-5.8312,-5.8317,-5.8367,0,0,0,0,0,0,-5.75,-5.7529,-5.7574,-5.7642,-5.7671,-5.7822,-5.777,-5.7778,-5.7822,-5.7819,-5.7887,-5.7895,-5.7911,-5.8022,-5.8042,-5.8098,-5.8008,-5.8302,-5.8309,-5.8315,-5.8361,-5.8374,-5.8385,0,0,0,0,0,-5.749,-5.7582,-5.7577,-5.7601,-5.7728,-5.7825,-5.7841,-5.786,-5.7827,-5.7872,-5.7906,-5.7892,-5.8079,-5.8032,-5.8055,-5.8114,-5.8298,-5.8307,-5.8315,-5.8356,-5.8371,-5.8385,0,0,0,0,0,0,-5.7517,-5.7591,-5.7586,-5.7702,-5.7758,-5.7822,-5.788,-5.7875,-5.794,-5.7933,-5.7952,-5.7967,-5.8072,-5.8103,-5.805,-5.8231,-5.8184,-5.8197,-5.8207,-5.8222,-5.8234,-5.8225,-5.8015,0,0,0,0,0,-5.7537,-5.761,-5.767,-5.7767,-5.7795,-5.7833,-5.7875,-5.7885,-5.7943,-5.7965,-5.8006,-5.8061,-5.8133,-5.8179,-5.8247,-5.8365,-5.838,-5.8417,-5.8429,-5.8438,-5.845,-5.8517,-5.8534,-5.8346,-5.8346,-5.8346,0,0,-5.7578,-5.7627,-5.7672,-5.7774,-5.7818,-5.7893,-5.7852,-5.7933,-5.7989,-5.7977,-5.8078,-5.811,-5.8173,-5.8285,-5.8336,-5.8314,-5.8505,-5.8449,-5.8456,-5.8463,-5.8527,-5.8545,-5.856,-5.8352,-5.8351,-5.835,0,0,-5.7691,-5.7736,-5.7822,-5.7868,-5.7936,-5.7961,-5.7982,-5.8047,-5.8069,-5.8171,-5.8164,-5.823,-5.8351,-5.8397,-5.8436,-5.8569,-5.856,-5.8591,-5.8653,-5.8718,-5.8733,-5.8746,-5.8795,-5.8812,-5.8602,-5.8602,-5.8602,0,-5.7733,-5.7848,-5.7867,-5.795,-5.7995,-5.799,-5.8078,-5.812,-5.8206,-5.8237,-5.8211,-5.8366,-5.8407,-5.8531,-5.8564,-5.8595,-5.8619,-5.8584,-5.8729,-5.8743,-5.8755,-5.8802,-5.8821,-5.8605,-5.8605,-5.8604,-5.8604,0,-5.7897,-5.7976,-5.8038,-5.8124,-5.8176,-5.8261,-5.8292,-5.8342,-5.8347,-5.8375,-5.8479,-5.8529,-5.8608,-5.8638,-5.8642,-5.8763,-5.8747,-5.8725,-5.8679,-5.8776,-5.8821,-5.8839,-5.861,-5.8609,-5.8608,-5.8607,0,0,-5.8031,-5.8128,-5.8151,-5.8191,-5.8266,-5.8327,-5.8412,-5.8491,-5.8534,-5.8594,-5.8666,-5.877,-5.8751,-5.8795,-5.8805,-5.8861,-5.8966,-5.8833,-5.8834,-5.8857,-5.9103,-5.912,-5.9141,-5.896,-5.8963,-5.8966,-5.9098,0,-5.8154,-5.8306,-5.8326,-5.846,-5.8534,-5.8531,-5.8604,-5.8658,-5.8686,-5.8752,-5.8782,-5.8857,-5.8825,-5.8852,-5.8908,-5.8941,-5.9016,-5.8932,-5.9027,-5.903,-5.9013,-5.9164,-5.9182,-5.9305,-5.9116,-5.9118,-5.9121,0,-5.8317,-5.8384,-5.8526,-5.8594,-5.8625,-5.8692,-5.8767,-5.883,-5.8891,-5.8908,-5.8959,-5.8962,-5.9049,-5.8998,-5.9119,-5.9061,-5.9101,-5.9124,-5.9129,-5.9139,-5.9082,-5.918,-5.9344,-5.9363,-5.9148,-5.9146,-5.9144,0,-5.8403,-5.8528,-5.8631,-5.8664,-5.8745,-5.8792,-5.8827,-5.8885,-5.8932,-5.8997,-5.9028,-5.9101,-5.9142,-5.9199,-5.9222,-5.9182,-5.9342,-5.9292,-5.9358,-5.9358,-5.9393,-5.939,-5.9567,-5.9415,-5.9415,-5.9415,-5.9414,0,-5.8539,-5.8626,-5.8671,-5.8734,-5.8832,-5.8854,-5.895,-5.8983,-5.9035,-5.9104,-5.9104,-5.9168,-5.9194,-5.9262,-5.928,-5.9378,-5.9396,-5.9412,-5.9416,-5.9413,-5.9411,-5.944,-5.9433,-5.942,-5.9419,-5.9418,-5.9417,0,-5.8652,-5.8685,-5.8797,-5.8864,-5.8884,-5.8953,-5.9011,-5.9071,-5.9099,-5.9186,-5.9208,-5.925,-5.9331,-5.9359,-5.9456,-5.9468,-5.9583,-5.9579,-5.9563,-5.9565,-5.963,-5.9624,-5.9832,-5.9861,-5.9689,-5.9691,-5.9692,0,-5.8737,-5.8805,-5.8881,-5.8929,-5.8967,-5.9042,-5.9091,-5.9115,-5.9165,-5.9241,-5.9293,-5.9373,-5.9439,-5.9568,-5.9607,-5.9682,-5.968,-5.9748,-5.9691,-5.9687,-5.9684,-5.968,-5.9688,-5.9759,-5.9761,-5.9762,-5.9764,0,-5.8886,-5.89,-5.8971,-5.9049,-5.9108,-5.917,-5.9229,-5.9268,-5.93,-5.9357,-5.9441,-5.9492,-5.9593,-5.9673,-5.975,-5.9785,-5.9781,-5.9781,-5.9801,-5.9799,-5.9789,-5.9797,-5.9594,-5.9776,-5.9775,-5.9774,-5.9774,-5.9773,-5.899,-5.9051,-5.9115,-5.9194,-5.9242,-5.9299,-5.936,-5.9396,-5.9467,-5.9552,-5.9561,-5.9652,-5.9712,-5.9815,-5.9854,-5.9924,-5.9905,-5.9933,-5.994,-5.9947,-5.9953,-5.9776,-5.9938,-5.9937,-5.9937,-5.9937,-5.9936,0,-5.914,-5.9181,-5.9255,-5.934,-5.9403,-5.9394,-5.9461,-5.9514,-5.9594,-5.9651,-5.9717,-5.9814,-5.9892,-5.9938,-6.0016,-6.0064,-6.0064,-6.0083,-6.0081,-6.009,-5.9965,-5.9941,-6.0082,-6.0082,-6.0082,-6.0082,-6.0082,-6.0082,-5.9226,-5.933,-5.9351,-5.9478,-5.9518,-5.9609,-5.9648,-5.97,-5.9746,-5.9855,-5.9921,-5.9951,-6.0004,-6.0086,-6.0157,-6.0169,-6.0198,-6.0221,-6.023,-6.0113,-6.0098,-6.0084,-6.0062,-6.0226,-6.0226,-6.035,-6.0351,-6.0352]}]]